Find WHDW 10-01

NORAD ID: 65305 Int'l Des: 2025-187 Owner: ZXW Country: CN Constellation: xingwang operational
LEOCIRCULAR

現在のビュー

3D地球を読み込み中...

About WHDW 10-01

WHDW 10-01 (NORAD 65305) is a xingwang constellation satellite launched Aug 25, 2025 by ZXW of CN. It operates in LEO, CIRCULAR orbit with a mass of 800.00 kg.

WHDW 10-01について

説明を読み込み中...

次回通過

Passes for default location (London). Set your location on the main map for personalized predictions.

高度履歴

Loading altitude history...

軌道要素

1 65305U 25187A 26195.12678293 -.00000102 00000-0 46573-4 0 9996
2 65305 50.0050 109.2625 0000134 306.9493 53.1367 13.29323440 43281
Epoch: Jul 14, 2026 • Age: 13 hours

現在のステータス

高度 1149.4 km
遠地点 / 近地点 N/A
速度 7.28 km/s
衛星直下点 5.02°N, 102.36°E
打ち上げ日 Aug 25, 2025
運用期間 0.8 years
タイプ other

技術仕様

分類 Payload
質量 800.00 kg
乾燥質量 800.00 kg
総質量 800.00 kg
長さ 3.00 m
直径 1.00 m
スパン 10.00 m
形状 Box + 2 Pan
製造者 SECM
バスタイプ Xingwang S
フェーズステータス In Orbit
所有者/国 ZXW/CN

Most Searched